www.pogodaiklimat.ru

Погода и климат >> Архив погоды >> Венгрия >> Дебрецен


ПОГОДА в Дебрецене

  • Прогноз погоды в Дебрецене
  • Монитор погоды в Дебрецене

АРХИВ ПОГОДЫ в Дебрецене

Время (UTC), дата Ветер
(напр.,м/с)
 
Видим.   Явления Облачность Т
(С)
Тd
(С)
f
(%)
Тe
(С)
Тes
(С)
Комфортность P
(гПа)
Po
(гПа)
Тmin
(С)
Tmax
(С)
R
(мм)
R24
(мм)
S
(см)
01 13.06 ЮВ 1 н/о н/о +19.8 +18.8 94 +24 +24 комфорт 1014.6 1001.9
02 13.06 СВ 2 н/о н/о +19.1 +17.9 93 +21 +21 комфорт 1014.3 1001.6
03 13.06 СВ 1 н/о н/о +19.2 +17.9 92 +22 +22 комфорт 1014.2 1001.5
04 13.06 СВ 2 н/о н/о +19.4 +18.4 94 +22 +22 комфорт 1014.2 1001.5
05 13.06 В 2 н/о н/о +21.6 +18.2 81 +26 +26 душно 1014.2 1001.6
06 13.06 В 2 н/о н/о +25.3 +18.3 65 +30 +30 душно 1014.9 1002.4 +18.8
07 13.06 СВ 1 н/о н/о +26.9 +17.7 57 +31 +31 душно 1015.0 1002.6
08 13.06 В 1 н/о н/о +28.9 +19.0 55 +34 +34 очень
душно
1015.1 1002.8
09 13.06 ЮВ 2 н/о н/о +30.6 +17.0 44 +34 +34 очень
душно
1014.9 1002.7
10 13.06 ЮВ 1 н/о н/о +31.0 +16.6 42 +34 +34 душно 1014.9 1002.7
11 13.06 ЮВ 3 н/о н/о +32.1 +15.6 37 +35 +35 очень
душно
1014.6 1002.4
12 13.06 ЮВ 2 н/о н/о +32.6 +16.0 37 +35 +35 душно 1014.0 1001.9
13 13.06 ЮЗ 1 н/о н/о +33.0 +14.6 33 +35 +35 душно 1013.9 1001.8
14 13.06 Ю 3 н/о н/о +33.4 +14.0 31 +35 +35 душно 1013.6 1001.5
15 13.06 Ю 3 н/о н/о +32.8 +14.4 33 +34 +34 очень
жарко
1013.4 1001.3
16 13.06 ЮВ 3 н/о н/о +32.3 +15.8 37 +35 +35 очень
душно
1013.4 1001.2
17 13.06 ЮВ 2 н/о н/о +31.3 +16.5 41 +34 +34 душно 1013.4 1001.2
18 13.06 ЮВ 2 н/о н/о +28.9 +18.1 52 +34 +34 очень
душно
1013.3 1001.0 +33.5
19 13.06 ЮВ 1 н/о н/о +26.8 +18.9 62 +32 +32 очень
душно
1013.5 1001.1
20 13.06 В 1 н/о н/о +24.9 +18.4 67 +29 +29 душно 1014.0 1001.5
21 13.06 СВ 1 н/о н/о +24.4 +17.9 67 +29 +29 душно 1015.0 1002.5
22 13.06 СВ 2 н/о н/о +22.9 +17.4 71 +28 +28 душно 1015.0 1002.4
23 13.06 СВ 2 н/о н/о +22.7 +17.4 72 +28 +28 душно 1015.1 1002.5
00 14.06 В 2 н/о н/о +20.5 +17.5 83 +25 +25 комфорт 1015.3 1002.6
01 14.06 В 1 н/о н/о +20.4 +18.2 87 +25 +25 комфорт 1015.0 1002.3
02 14.06 СВ 1 н/о н/о +19.8 +18.3 91 +24 +24 комфорт 1015.2 1002.5
03 14.06 штиль 0 н/о н/о +19.1 +18.4 96 +21 +21 комфорт 1015.0 1002.3
04 14.06 В 1 н/о н/о +20.0 +19.0 94 +24 +24 комфорт 1015.4 1002.7
05 14.06 В 2 н/о н/о +22.8 +20.1 85 +29 +29 очень
душно
1016.1 1003.5
06 14.06 ЮВ 1 н/о н/о +25.8 +19.9 70 +32 +32 очень
душно
1016.6 1004.1 +18.6
07 14.06 Ю 2 н/о н/о +26.9 +19.8 65 +33 +33 очень
душно
1016.8 1004.4
08 14.06 В 2 н/о н/о +29.2 +20.6 60 +36 +36 очень
душно
1016.8 1004.5
09 14.06 В 1 н/о н/о +31.7 +19.7 49 +38 +38 очень
душно
1016.9 1004.7
10 14.06 ЮВ 2 н/о н/о +32.2 +19.1 46 +38 +38 очень
душно
1017.0 1004.8
11 14.06 Ю 3 н/о н/о +32.9 +19.4 45 +38 +38 очень
душно
1016.8 1004.6
12 14.06 С 3 н/о н/о +32.7 +17.3 40 +36 +36 очень
душно
1016.3 1004.1
13 14.06 З 1 н/о н/о +33.1 +16.5 37 +36 +36 очень
душно
1016.2 1004.0
14 14.06 Ю 2 н/о н/о +33.6 +16.9 37 +37 +37 очень
душно
1015.9 1003.8
15 14.06 ЮЗ 2 н/о н/о +31.8 +19.4 48 +38 +38 очень
душно
1015.9 1003.7
16 14.06 ЮЗ 1 н/о н/о +30.3 +21.1 58 +38 +38 очень
душно
1015.8 1003.5
17 14.06 З 1 н/о н/о +31.2 +21.4 56 +39 +39 очень
душно
1015.7 1003.5
18 14.06 СЗ 2 н/о н/о +29.1 +22.1 66 +38 +38 очень
душно
1016.3 1004.0 +34.2
19 14.06 СЗ 1 н/о н/о +28.1 +21.9 69 +36 +36 очень
душно
1016.4 1004.0
20 14.06 С 1 н/о н/о +26.5 +22.1 77 +34 +34 очень
душно
1016.6 1004.2
21 14.06 штиль 0 н/о н/о +25.4 +21.9 81 +33 +33 очень
душно
1016.7 1004.2
22 14.06 штиль 0 н/о н/о +24.7 +21.2 81 +31 +31 очень
душно
1016.8 1004.3
23 14.06 ЮЗ 1 н/о н/о +23.5 +21.9 91 +30 +30 очень
душно
1016.4 1003.9
00 15.06 В 2 н/о н/о +22.2 +21.2 94 +29 +29 очень
душно
1016.2 1003.6
01 15.06 штиль 0 н/о н/о +22.3 +20.2 88 +29 +29 очень
душно
1016.2 1003.6
02 15.06 В 1 н/о н/о +20.9 +19.9 94 +27 +27 душно 1016.1 1003.4
03 15.06 СВ 2 н/о н/о +21.0 +19.8 93 +27 +27 душно 1016.3 1003.6
04 15.06 В 3 н/о н/о +20.8 +19.8 94 +26 +26 душно 1016.2 1003.5
05 15.06 В 1 н/о н/о +22.2 +20.7 91 +29 +29 очень
душно
1016.2 1003.6
06 15.06 Ю 2 н/о н/о +24.9 +21.6 82 +32 +32 очень
душно
1016.2 1003.7 +20.2
07 15.06 ЮВ 1 н/о н/о +26.7 +22.3 77 +35 +35 очень
душно
1016.0 1003.6
08 15.06 З 1 н/о н/о +28.9 +22.4 68 +38 +38 очень
душно
1015.7 1003.4
09 15.06 Ю 1 н/о н/о +30.9 +22.0 59 +40 +40 очень
душно
1015.4 1003.2
10 15.06 З 2 н/о н/о +31.1 +21.3 56 +39 +39 очень
душно
1015.2 1003.0
11 15.06 ЮЗ 3 н/о н/о +32.9 +19.4 45 +38 +38 очень
душно
1014.7 1002.6
12 15.06 З 1 н/о н/о +33.1 +17.3 39 +37 +37 очень
душно
1013.7 1001.6
13 15.06 ЮЗ 2 н/о н/о +33.8 +18.7 41 +39 +39 очень
душно
1013.3 1001.2
14 15.06 З 2 н/о н/о +33.8 +17.1 37 +37 +37 очень
душно
1012.8 1000.7
15 15.06 В 3
{7}
н/о н/о +30.0 +20.3 56 +37 +37 очень
душно
1012.6 1000.4
16 15.06 В 2 н/о н/о +30.2 +20.7 57 +37 +37 очень
душно
1012.5 1000.3
17 15.06 ЮВ 2 н/о н/о +29.5 +21.2 61 +37 +37 очень
душно
1012.6 1000.3
18 15.06 Ю 2 н/о н/о +28.9 +21.7 65 +37 +37 очень
душно
1012.3 1000.0 +34.6
19 15.06 ЮВ 2 н/о н/о +27.4 +21.2 69 +35 +35 очень
душно
1012.6 1000.3
20 15.06 Ю 2 н/о н/о +25.6 +20.8 75 +32 +32 очень
душно
1013.1 1000.7
21 15.06 Ю 2 н/о н/о +24.0 +19.5 76 +29 +29 душно 1012.5 1000.0
22 15.06 З 1 н/о н/о +23.6 +19.9 80 +29 +29 душно 1012.6 1000.1
23 15.06 ЮЗ 1 н/о н/о +23.1 +19.5 80 +30 +30 очень
душно
1012.4 999.9
00 16.06 Ю 2 н/о н/о +21.7 +19.3 86 +27 +27 душно 1013.1 1000.5
01 16.06 Ю 1 н/о н/о +21.3 +18.9 86 +26 +26 душно 1012.9 1000.3
02 16.06 Ю 1 н/о н/о +20.7 +18.5 87 +26 +26 душно 1012.7 1000.1
03 16.06 штиль 0 н/о н/о +20.8 +18.6 87 +25 +25 комфорт 1012.9 1000.3
04 16.06 штиль 0 н/о н/о +20.8 +18.6 87 +25 +25 комфорт 1013.1 1000.5
05 16.06 Ю 1 н/о н/о +22.9 +19.1 79 +29 +29 очень
душно
1013.3 1000.8
06 16.06 Ю 2 н/о н/о +25.6 +18.8 66 +31 +31 очень
душно
1013.2 1000.8 +20.0
07 16.06 Ю 2 н/о н/о +26.7 +19.3 64 +32 +32 очень
душно
1013.4 1001.0
08 16.06 Ю 1 н/о н/о +28.4 +19.9 60 +35 +35 очень
душно
1013.4 1001.1
09 16.06 ЮВ 1 н/о н/о +30.7 +20.3 54 +37 +37 очень
душно
1013.1 1000.9
10 16.06 Ю 2 н/о н/о +31.5 +19.5 49 +37 +37 очень
душно
1013.0 1000.8
11 16.06 ЮВ 2 н/о н/о +32.5 +19.7 47 +38 +38 очень
душно
1012.4 1000.3
12 16.06 Ю 2 н/о н/о +33.4 +17.1 38 +37 +37 очень
душно
1012.0 999.9
13 16.06 СЗ 4 н/о н/о +32.7 +19.2 45 +38 +38 очень
душно
1011.5 999.4
14 16.06 СВ 3 н/о н/о +31.8 +17.7 43 +36 +36 очень
душно
1011.2 999.1
15 16.06 СВ 4 н/о н/о +32.8 +17.8 41 +37 +37 очень
душно
1010.5 998.4
16 16.06 В 3 н/о н/о +31.7 +19.7 49 +38 +38 очень
душно
1010.3 998.2
17 16.06 штиль 0 н/о н/о +30.8 +19.2 50 +36 +36 очень
душно
1010.9 998.7
18 16.06 З 6
{9}
н/о н/о +25.0 +17.7 64 +29 +29 душно 1012.7 1000.3 +33.9 0.1
19 16.06 СЗ 8 н/о н/о +23.5 +16.3 64 +27 +27 душно 1014.0 1001.5
20 16.06 СЗ 10 н/о н/о +19.1 +18.9 99 +20 +20 1015.3 1002.6
21 16.06 С 6
{12}
н/о н/о +19.8 +18.3 91 +22 +22 комфорт 1016.2 1003.5
22 16.06 СВ 6 н/о н/о +19.5 +18.7 95 +22 +22 комфорт 1016.2 1003.5
23 16.06 СВ 9 н/о н/о +19.7 +18.0 90 +22 +22 комфорт 1014.9 1002.2
00 17.06 С 5
{14}
н/о н/о +19.4 +16.1 81 +21 +21 комфорт 1013.7 1001.0 20
01 17.06 СВ 6 н/о н/о +18.4 +16.4 88 +18 +18 1014.4 1001.7
02 17.06 СВ 6 н/о н/о +19.3 +16.5 84 +21 +21 комфорт 1014.7 1002.0
03 17.06 СЗ 1 н/о н/о +18.3 +17.1 93 +20 +20 1015.8 1003.0
04 17.06 З 1 н/о н/о +18.4 +17.4 94 +20 +20 1016.1 1003.3
05 17.06 З 2 н/о н/о +19.1 +17.9 93 +21 +21 комфорт 1016.6 1003.9
06 17.06 З 2 н/о н/о +19.9 +18.0 89 +23 +23 комфорт 1016.7 1004.0 +18.3 20
07 17.06 СЗ 3 н/о н/о +20.3 +17.9 86 +24 +24 комфорт 1016.8 1004.1
08 17.06 С 4 н/о н/о +21.0 +18.2 84 +25 +25 комфорт 1016.8 1004.1
09 17.06 С 4
{7}
н/о н/о +23.7 +18.6 73 +28 +28 душно 1017.1 1004.6
10 17.06 С 4 н/о н/о +25.2 +19.1 69 +30 +30 душно 1017.0 1004.5
11 17.06 С 4 н/о н/о +25.9 +18.8 65 +31 +31 очень
душно
1016.8 1004.3
12 17.06 С 5
{8}
н/о н/о +26.7 +19.1 63 +32 +32 очень
душно
1016.2 1003.8
13 17.06 СВ 5 н/о н/о +26.6 +19.0 63 +32 +32 очень
душно
1016.1 1003.7
14 17.06 СВ 6 н/о н/о +26.0 +17.9 61 +30 +30 душно 1016.0 1003.6
15 17.06 С 5
{8}
н/о н/о +25.6 +18.5 65 +30 +30 душно 1015.5 1003.1
16 17.06 С 4 н/о н/о +25.6 +18.0 63 +30 +30 душно 1015.7 1003.2
17 17.06 С 4 н/о н/о +24.7 +17.7 65 +29 +29 душно 1015.8 1003.3
18 17.06 С 5
{8}
н/о н/о +22.6 +16.2 67 +27 +27 душно 1016.3 1003.7 +27.1
19 17.06 С 4 н/о н/о +21.6 +15.9 70 +25 +25 комфорт 1016.5 1003.9
20 17.06 С 4 н/о н/о +20.3 +14.4 69 +23 +23 комфорт 1017.0 1004.3
21 17.06 С 5
{8}
н/о н/о +19.4 +13.3 68 +21 +21 комфорт 1016.9 1004.2
22 17.06 С 4 н/о н/о +19.0 +13.0 68 +20 +20 1016.3 1003.6
23 17.06 СВ 5 н/о н/о +18.6 +12.6 68 +19 +19 1016.6 1003.8
00 18.06 С 4
{7}
н/о н/о +18.2 +12.9 71 +18 +18 1016.3 1003.5
01 18.06 СВ 5 н/о н/о +17.9 +13.2 74 +18 +18 1016.3 1003.5
02 18.06 СВ 3 н/о н/о +17.4 +13.5 78 +17 +17 1016.1 1003.3
03 18.06 С 3 н/о н/о +17.0 +13.7 81 +17 +17 1016.2 1003.4
04 18.06 СВ 4 н/о н/о +17.2 +13.9 81 +17 +17 1016.3 1003.5
05 18.06 СВ 4 н/о н/о +18.1 +14.6 80 +18 +18 1016.5 1003.7
06 18.06 СВ 3 н/о н/о +20.5 +15.9 75 +24 +24 комфорт 1016.9 1004.2 +17.0
07 18.06 СВ 2 н/о н/о +21.8 +16.7 73 +26 +26 душно 1017.0 1004.4
08 18.06 ЮВ 1 н/о н/о +23.6 +18.5 73 +28 +28 душно 1017.4 1004.8
09 18.06 ЮВ 2 н/о н/о +24.9 +19.3 71 +30 +30 душно 1017.1 1004.6
10 18.06 В 1 н/о н/о +25.8 +19.7 69 +31 +31 очень
душно
1016.8 1004.3
11 18.06 ЮВ 1 н/о н/о +27.7 +19.2 60 +33 +33 очень
душно
1016.4 1004.0
12 18.06 ЮВ 2
{7}
н/о н/о +28.3 +19.0 57 +34 +34 очень
душно
1015.7 1003.4
13 18.06 СВ 1 н/о н/о +28.0 +18.7 57 +33 +33 очень
душно
1015.2 1002.9
14 18.06 З 1 н/о н/о +27.4 +19.5 62 +33 +33 очень
душно
1015.3 1002.9
15 18.06 СЗ 2 н/о н/о +28.6 +19.2 57 +34 +34 очень
душно
1014.3 1002.0
16 18.06 СЗ 2 н/о н/о +28.9 +19.5 57 +35 +35 очень
душно
1014.1 1001.8
17 18.06 СЗ 2 н/о н/о +24.8 +19.9 74 +30 +30 душно 1014.6 1002.1
18 18.06 СВ 4
{9}
н/о н/о +23.9 +18.8 73 +29 +29 душно 1015.0 1002.5 +29.0 5
19 18.06 В 3 н/о н/о +23.0 +18.1 74 +29 +29 очень
душно
1015.1 1002.5
20 18.06 СВ 2 н/о н/о +23.0 +18.3 75 +29 +29 очень
душно
1015.2 1002.6
21 18.06 В 1 н/о н/о +21.5 +17.1 76 +25 +25 комфорт 1015.0 1002.4
22 18.06 штиль 0 н/о н/о +21.2 +17.0 77 +25 +25 комфорт 1015.2 1002.6
23 18.06 штиль 0 н/о н/о +20.9 +17.7 82 +25 +25 комфорт 1015.0 1002.4
00 19.06 штиль 0 н/о н/о +20.0 +18.0 88 +23 +23 комфорт 1014.5 1001.8
01 19.06 СЗ 2 н/о н/о +18.9 +18.1 95 +21 +21 комфорт 1014.9 1002.2
02 19.06 В 1 н/о н/о +18.2 +17.7 97 +20 +20 1014.1 1001.4
03 19.06 СВ 2 н/о н/о +18.0 +17.5 97 +19 +19 1014.1 1001.3
04 19.06 СВ 2 н/о н/о +18.9 +18.2 96 +21 +21 комфорт 1014.1 1001.4
05 19.06 В 2 н/о н/о +20.6 +18.9 90 +25 +25 комфорт 1014.3 1001.7
06 19.06 Ю 1 н/о н/о +23.1 +19.7 81 +30 +30 очень
душно
1014.6 1002.1 +18.0
07 19.06 Ю 1 н/о н/о +24.3 +19.8 76 +30 +30 очень
душно
1014.3 1001.8
08 19.06 В 1 н/о н/о +26.3 +20.2 69 +32 +32 очень
душно
1014.3 1001.9
09 19.06 штиль 0 н/о н/о +28.4 +19.9 60 +35 +35 очень
душно
1014.1 1001.8
10 19.06 ЮВ 1 н/о н/о +28.7 +17.9 52 +33 +33 очень
душно
1013.8 1001.5
11 19.06 ЮВ 2 н/о н/о +29.2 +18.6 53 +34 +34 очень
душно
1013.2 1000.9
12 19.06 В 1
{8}
н/о н/о +30.0 +18.1 49 +35 +35 очень
душно
1012.1 999.9
13 19.06 ЮЗ 1 н/о н/о +30.0 +17.5 47 +34 +34 очень
душно
1011.9 999.7
14 19.06 З 6 н/о н/о +25.5 +18.9 67 +30 +30 душно 1011.9 999.5
15 19.06 С 2
{8}
н/о н/о +23.3 +19.9 81 +30 +30 очень
душно
1012.4 999.9
16 19.06 В 3 н/о н/о +21.2 +19.8 92 +26 +26 душно 1012.1 999.5
17 19.06 СВ 3 н/о н/о +20.6 +19.8 95 +25 +25 комфорт 1013.0 1000.4
18 19.06 СВ 3 н/о н/о +21.0 +19.5 91 +26 +26 душно 1012.6 1000.0 +30.5 7
19 19.06 ЮВ 3 н/о н/о +20.0 +18.5 91 +23 +23 комфорт 1014.0 1001.3
20 19.06 ЮЗ 5 н/о н/о +20.0 +19.2 95 +23 +23 комфорт 1014.8 1002.1
21 19.06 СЗ 2 н/о н/о +18.9 +18.2 96 +21 +21 комфорт 1013.2 1000.5
22 19.06 штиль 0 н/о н/о +18.7 +18.2 97 +20 +20 1012.8 1000.1
00 20.06 В 3 н/о н/о +18.2 +17.9 98 +19 +19 1012.6 999.9

 

Местоположение метеостанции Дебрецен (Венгрия): широта 47.48 долгота 21.60 высота над уровнем моря 109 м.

В архиве по умолчанию представлена погода в Дебрецене за последнюю неделю. Архивные данные за месяц целиком и за предыдущие месяцы, начиная с января 2011 года, Вы можете получить, выбрав интересующий диапазон дат из раскрывающегося списка и нажав кнопку "Ввод!".


*Определитесь, кто Вы:
робот инопланетянин человек

Внимание! Время в таблицах - всемирное. Для получения местного времени необходимо прибавить поправку, которая равна 1 ч.

Смотрите также архив погоды в соседних городах и на ближайших метеорологических станциях:

Погода в Сэкуени (Румыния) (40 км)
Погода в Орадя (Румыния) (55 км)
Погода в Ньиредьхазе (Венгрия) (58 км)
Погода в Порозло (Венгрия) (75 км)
Погода в Холоде (Румыния) (87 км)
Погода в Супуру де Йос (Румыния) (89 км)
Погода в Мишкольце (Венгрия) (93 км)
Погода в Бороде (Румыния) (94 км)
Погода в Бекешчабе (Венгрия) (95 км)
Погода в Сату-Маре (Румыния) (100 км)

Пояснения к столбцам:

Ветер - указаны скорость ветра в м/с - средняя за 10 мин, порывы в срок и между сроками (в фигурных скобках) и направление, откуда дует ветер: С - северный, СВ - северо-восточный, В - восточный, ЮВ - юго-восточный, Ю - южный, ЮЗ - юго-западный, З - западный, СЗ - северо-западный.
Видимость - горизонтальная дальность видимости в метрах или километрах. При видимости от 1 до 10 км при отсутствии осадков обычно наблюдается дымка, при ухудшении видимости до 1 км и менее - туман. В сухую погоду видимость может ухудшаться дымом, пылью или мглою.
Явления - указаны атмосферные явления, наблюдавшиеся в срок или в последний час перед сроком; фигурными скобками обозначены явления, наблюдавшиеся между сроками (за 1-3 часа до срока); квадратными скобками обозначены град или гололедные отложения с указанием их диаметра в мм.
Облачность - указаны через наклонную черту общая и нижняя облачность в баллах и высота нижней границы облаков в метрах; квадратными скобками обозначены формы облаков: Ci - перистые, Cs - перисто-слоистые, Cc - перисто-кучевые, Ac - высококучевые, As - высокослоистые, Sc - слоисто-кучевые, Ns - слоисто-дождевые, Cu - кучевые, Cb - кучево-дождевые. Подробнее классификацию облаков см. в Атласе облаков (PDF).
T - Температура воздуха - температура, измеренная на высоте 2 м над землей.
Td - Температура точки росы - температура, при понижении до которой содержащийся в воздухе водяной пар достигнет насыщения.
f - Относительная влажность воздуха - влажноcть воздуха, измеренная на высоте 2 м над землей.
Te - Эффективная температура - температура, которую ощущает одетый по сезону человек в тени. Характеристика душности погоды. При расчете учитывается влияние влажности воздуха и скорости ветра на теплоощущения человека.
Tes - Эффективная температура на солнце - температура, которую ощущает человек, с поправкой на солнечный нагрев. Характеристика знойности погоды. Зависит от высоты солнца над горизонтом, облачности и скорости ветра. Ночью, в пасмурную погоду, а также при ветре 12 м/с и более поправка равна нулю.
P - Атмосферное давление - приведенное к уровню моря атмосферное давление.
Po - Атмосферное давление - измеренное на уровне метеостанции атмосферное давление.
Tmin - Минимальная температура - минимум температуры воздуха на высоте 2 м над землей.
Tmax - Максимальная температура - максимум температуры воздуха на высоте 2 м над землей.
R - Количество осадков - Количество выпавших осадков за период времени, мм. При наведении курсора мыши на число - период времени, за который выпало указанное количество осадков.
R24 - Количество осадков - Количество выпавших осадков за 24 часа, мм.
S - Снежный покров - Высота снежного покрова, см. При наведении курсора мыши на число - состояние снежного покрова и степень покрытия местности в баллах.